Retour au catalogue

STARLINK-2195

ActifCommunicationsVLEO
NORAD 47772·PAYLOAD·🇺🇸 United States

Lancé Mar 4, 2021 depuis Cape Canaveral Space Force Station

Loading…

Prochains Passages (prochaines 24 heures)

TLE

FraisSource: CelesTrak SupGP

Époque: Sep 15, 2026, 02:13 UTC

1 47772C 21017BC  26258.09284722 -.00031830  00000+0 -10235-2 0  2582
2 47772  53.1597  55.8648 0001224  71.0836 231.2261 15.31718945    11

Suivez STARLINK-2195 en temps réel avec AllMySat

Download on the App Store